| time (UTC) | temp F | wind direction | speed knots | gust knots | rain 1hr in | rain 24hr in | rain mn in | humidity % | barometer mb |
| 20260506185029 | 60 | 160 | 1.7 | 4.3 | 0.03 | 0.09 | 0.09 | 93 | 1007.0 |
| 20260506184552 | 60 | 114 | 0.9 | 2.6 | 0.02 | 0.08 | 0.08 | 93 | 1007.1 |
| 20260506184029 | 60 | 162 | 0.9 | 3.5 | 0.03 | 0.08 | 0.08 | 93 | 1007.1 |
| 20260506183529 | 60 | 150 | 0.9 | 3.5 | 0.03 | 0.08 | 0.08 | 93 | 1006.9 |
| 20260506183036 | 60 | 115 | 0.9 | 2.6 | 0.03 | 0.07 | 0.07 | 92 | 1007.0 |
| 20260506182528 | 61 | 203 | 0.9 | 3.5 | 0.03 | 0.07 | 0.07 | 92 | 1007.3 |
| 20260506182030 | 61 | 217 | 0.9 | 5.2 | 0.04 | 0.07 | 0.07 | 92 | 1007.3 |
| 20260506181537 | 61 | 139 | 0.9 | 5.2 | 0.05 | 0.07 | 0.07 | 91 | 1007.3 |
| 20260506181030 | 61 | 147 | 0.9 | 5.2 | 0.06 | 0.07 | 0.07 | 91 | 1007.3 |
| 20260506180530 | 62 | 192 | 0.0 | 2.6 | 0.07 | 0.07 | 0.07 | 92 | 1007.1 |
| 20260506180046 | 62 | 144 | 0.9 | 2.6 | 0.06 | 0.06 | 0.06 | 91 | 1007.0 |
| 20260506175529 | 62 | 143 | 0.9 | 3.5 | 0.06 | 0.06 | 0.06 | 91 | 1006.8 |
| 20260506175029 | 62 | 203 | 1.7 | 3.5 | 0.06 | 0.06 | 0.06 | 91 | 1007.1 |
| 20260506174546 | 62 | 150 | 0.9 | 1.7 | 0.06 | 0.06 | 0.06 | 90 | 1007.0 |
| 20260506174029 | 63 | 0 | 0.9 | 1.7 | 0.05 | 0.05 | 0.05 | 91 | 1007.0 |
| 20260506173530 | 63 | 146 | 0.0 | 2.6 | 0.05 | 0.05 | 0.05 | 91 | 1007.3 |
| 20260506173052 | 63 | 144 | 0.9 | 2.6 | 0.04 | 0.04 | 0.04 | 89 | 1007.6 |
| 20260506172529 | 64 | 148 | 0.0 | 2.6 | 0.03 | 0.03 | 0.03 | 89 | 1007.5 |
| 20260506172030 | 64 | 162 | 0.0 | 3.5 | 0.03 | 0.03 | 0.03 | 87 | 1007.7 |
| 20260506171538 | 64 | 155 | 0.9 | 3.5 | 0.02 | 0.02 | 0.02 | 85 | 1007.9 |
| 20260506171029 | 65 | 150 | 0.9 | 3.5 | 0.01 | 0.01 | 0.01 | 83 | 1008.1 |
| 20260506170531 | 66 | 147 | 0.0 | 1.7 | 0.00 | 0.00 | 0.00 | 84 | 1007.8 |
| 20260506170040 | 66 | 141 | 0.0 | 2.6 | 0.00 | 0.00 | 0.00 | 83 | 1007.8 |
| 20260506165529 | 66 | 141 | 0.0 | 2.6 | 0.00 | 0.00 | 0.00 | 80 | 1007.8 |
| 20260506165029 | 67 | 197 | 0.9 | 2.6 | 0.00 | 0.00 | 0.00 | 78 | 1007.9 |
| 20260506164545 | 67 | 169 | 0.0 | 1.7 | 0.00 | 0.00 | 0.00 | 78 | 1007.8 |
| 20260506164028 | 67 | 166 | 0.9 | 3.5 | 0.00 | 0.00 | 0.00 | 78 | 1007.8 |
| 20260506163528 | 67 | 153 | 0.9 | 3.5 | 0.00 | 0.00 | 0.00 | 77 | 1007.7 |
| 20260506163056 | 68 | 154 | 0.9 | 2.6 | 0.00 | 0.00 | 0.00 | 77 | 1007.7 |
| 20260506162528 | 68 | 124 | 0.9 | 2.6 | 0.00 | 0.00 | 0.00 | 77 | 1007.8 |
| 20260506162028 | 68 | 140 | 0.0 | 1.7 | 0.00 | 0.00 | 0.00 | 78 | 1007.8 |
| 20260506161544 | 67 | 204 | 0.0 | 3.5 | 0.00 | 0.00 | 0.00 | 79 | 1008.1 |
| 20260506161030 | 67 | 146 | 0.9 | 3.5 | 0.00 | 0.00 | 0.00 | 78 | 1008.2 |
| 20260506160530 | 67 | 137 | 0.9 | 3.5 | 0.00 | 0.00 | 0.00 | 78 | 1008.2 |
| 20260506160040 | 66 | 168 | 0.9 | 2.6 | 0.00 | 0.00 | 0.00 | 78 | 1008.4 |
| 20260506155529 | 66 | 134 | 0.9 | 1.7 | 0.00 | 0.00 | 0.00 | 78 | 1008.5 |
| 20260506155028 | 66 | 139 | 0.0 | 2.6 | 0.00 | 0.00 | 0.00 | 81 | 1008.5 |
| 20260506154548 | 65 | 134 | 0.0 | 2.6 | 0.00 | 0.00 | 0.00 | 80 | 1008.6 |
| 20260506154030 | 65 | 146 | 0.9 | 2.6 | 0.00 | 0.00 | 0.00 | 80 | 1008.8 |
| 20260506153530 | 65 | 140 | 0.0 | 1.7 | 0.00 | 0.00 | 0.00 | 81 | 1008.8 |
| 20260506153038 | 65 | 134 | 0.0 | 1.7 | 0.00 | 0.00 | 0.00 | 81 | 1008.7 |
| 20260506152529 | 64 | 139 | 0.9 | 3.5 | 0.00 | 0.00 | 0.00 | 80 | 1008.9 |
| 20260506152029 | 64 | 132 | 1.7 | 3.5 | 0.00 | 0.00 | 0.00 | 80 | 1009.0 |
| 20260506151540 | 65 | 125 | 0.9 | 3.5 | 0.00 | 0.00 | 0.00 | 80 | 1009.3 |
| 20260506151028 | 65 | 147 | 0.9 | 2.6 | 0.00 | 0.00 | 0.00 | 80 | 1009.3 |
| 20260506150529 | 64 | 204 | 0.9 | 2.6 | 0.00 | 0.00 | 0.00 | 80 | 1009.1 |
| 20260506150045 | 64 | 139 | 0.9 | 2.6 | 0.00 | 0.00 | 0.00 | 81 | 1009.3 |
| 20260506145529 | 64 | 161 | 0.9 | 3.5 | 0.00 | 0.00 | 0.00 | 81 | 1009.1 |
| 20260506145029 | 64 | 207 | 0.9 | 5.2 | 0.00 | 0.00 | 0.00 | 82 | 1009.3 |
| 20260506144545 | 64 | 225 | 1.7 | 5.2 | 0.00 | 0.00 | 0.00 | 81 | 1009.2 |
| 20260506144028 | 64 | 126 | 1.7 | 4.3 | 0.00 | 0.00 | 0.00 | 80 | 1009.2 |
| 20260506143530 | 64 | 131 | 0.9 | 3.5 | 0.00 | 0.00 | 0.00 | 81 | 1009.3 |
| 20260506143042 | 64 | 202 | 0.9 | 4.3 | 0.00 | 0.00 | 0.00 | 82 | 1009.3 |
| 20260506142529 | 64 | 143 | 0.9 | 4.3 | 0.00 | 0.00 | 0.00 | 81 | 1009.4 |
| 20260506142028 | 64 | 228 | 1.7 | 4.3 | 0.00 | 0.00 | 0.00 | 81 | 1009.4 |
| 20260506141539 | 64 | 150 | 0.9 | 3.5 | 0.00 | 0.00 | 0.00 | 81 | 1009.2 |
| 20260506141029 | 63 | 148 | 1.7 | 3.5 | 0.00 | 0.00 | 0.00 | 81 | 1009.2 |
| 20260506140529 | 63 | 184 | 1.7 | 7.0 | 0.00 | 0.00 | 0.00 | 81 | 1009.2 |
| 20260506140037 | 63 | 153 | 0.9 | 7.0 | 0.00 | 0.00 | 0.00 | 81 | 1009.3 |
| 20260506135526 | 63 | 125 | 3.5 | 7.0 | 0.00 | 0.00 | 0.00 | 80 | 1009.3 |
| 20260506135029 | 63 | 223 | 1.7 | 5.2 | 0.00 | 0.00 | 0.00 | 81 | 1009.3 |
| 20260506134545 | 63 | 223 | 1.7 | 5.2 | 0.00 | 0.00 | 0.00 | 82 | 1009.0 |
| 20260506134029 | 62 | 165 | 2.6 | 5.2 | 0.00 | 0.00 | 0.00 | 83 | 1009.1 |
| 20260506133528 | 62 | 185 | 0.9 | 5.2 | 0.00 | 0.00 | 0.00 | 83 | 1009.2 |
| 20260506133047 | 62 | 184 | 1.7 | 5.2 | 0.00 | 0.00 | 0.00 | 82 | 1009.2 |
| 20260506132525 | 62 | 177 | 1.7 | 4.3 | 0.00 | 0.00 | 0.00 | 82 | 1009.2 |
| 20260506132031 | 62 | 133 | 1.7 | 5.2 | 0.00 | 0.00 | 0.00 | 83 | 1009.1 |
| 20260506131543 | 62 | 165 | 0.9 | 5.2 | 0.00 | 0.00 | 0.00 | 83 | 1009.1 |
| 20260506131029 | 62 | 209 | 0.9 | 3.5 | 0.00 | 0.00 | 0.00 | 83 | 1009.2 |
| 20260506130529 | 62 | 152 | 0.9 | 3.5 | 0.00 | 0.00 | 0.00 | 83 | 1009.4 |
| 20260506130043 | 62 | 143 | 0.0 | 3.5 | 0.00 | 0.00 | 0.00 | 83 | 1009.3 |
| 20260506125529 | 62 | 0 | 0.0 | 1.7 | 0.00 | 0.00 | 0.00 | 84 | 1009.2 |
| 20260506125029 | 61 | 136 | 0.9 | 1.7 | 0.00 | 0.00 | 0.00 | 84 | 1009.3 |
| 20260506124545 | 61 | 152 | 0.0 | 2.6 | 0.00 | 0.00 | 0.00 | 84 | 1009.4 |
| 20260506124029 | 61 | 0 | 0.0 | 4.3 | 0.00 | 0.00 | 0.00 | 85 | 1009.6 |
| 20260506123529 | 61 | 223 | 1.7 | 4.3 | 0.00 | 0.00 | 0.00 | 85 | 1009.8 |
| 20260506123036 | 61 | 148 | 0.9 | 2.6 | 0.00 | 0.00 | 0.00 | 85 | 1009.6 |
| 20260506122527 | 60 | 0 | 0.0 | 2.6 | 0.00 | 0.00 | 0.00 | 86 | 1009.7 |
| 20260506122028 | 60 | 0 | 0.9 | 1.7 | 0.00 | 0.00 | 0.00 | 86 | 1009.7 |
| 20260506121538 | 60 | 150 | 0.0 | 1.7 | 0.00 | 0.00 | 0.00 | 86 | 1009.7 |
| 20260506121026 | 59 | 0 | 0.0 | 1.7 | 0.00 | 0.00 | 0.00 | 87 | 1009.9 |
| 20260506120526 | 59 | 139 | 0.0 | 1.7 | 0.00 | 0.00 | 0.00 | 87 | 1009.6 |
| 20260506120044 | 59 | 142 | 0.0 | 2.6 | 0.00 | 0.00 | 0.00 | 87 | 1009.8 |
| 20260506115525 | 59 | 150 | 0.9 | 2.6 | 0.00 | 0.00 | 0.00 | 87 | 1009.8 |
| 20260506115026 | 59 | 133 | 0.0 | 2.6 | 0.00 | 0.00 | 0.00 | 87 | 1009.7 |
| 20260506114543 | 59 | 169 | 0.9 | 2.6 | 0.00 | 0.00 | 0.00 | 88 | 1009.7 |
| 20260506114028 | 58 | 156 | 0.0 | 3.5 | 0.00 | 0.00 | 0.00 | 88 | 1009.7 |
| 20260506113527 | 58 | 183 | 0.9 | 4.3 | 0.00 | 0.00 | 0.00 | 88 | 1009.5 |
| 20260506113042 | 58 | 177 | 0.0 | 4.3 | 0.00 | 0.00 | 0.00 | 88 | 1009.7 |
| 20260506112532 | 58 | 244 | 0.9 | 2.6 | 0.00 | 0.00 | 0.00 | 88 | 1009.7 |
| 20260506112030 | 58 | 144 | 0.9 | 2.6 | 0.00 | 0.00 | 0.00 | 88 | 1009.7 |
| 20260506111542 | 58 | 218 | 0.9 | 2.6 | 0.00 | 0.00 | 0.00 | 88 | 1009.6 |
| 20260506111029 | 58 | 197 | 0.0 | 2.6 | 0.00 | 0.00 | 0.00 | 88 | 1009.7 |
| 20260506110529 | 58 | 140 | 0.9 | 4.3 | 0.00 | 0.00 | 0.00 | 89 | 1009.7 |
| 20260506110041 | 57 | 157 | 0.9 | 4.3 | 0.00 | 0.00 | 0.00 | 89 | 1009.9 |
| 20260506105529 | 57 | 190 | 0.0 | 1.7 | 0.00 | 0.00 | 0.00 | 89 | 1010.0 |
| 20260506105025 | 57 | 191 | 0.9 | 3.5 | 0.00 | 0.00 | 0.00 | 89 | 1010.0 |
| 20260506104537 | 57 | 150 | 0.0 | 3.5 | 0.00 | 0.00 | 0.00 | 89 | 1010.1 |
| 20260506104028 | 57 | 191 | 1.7 | 3.5 | 0.00 | 0.00 | 0.00 | 89 | 1009.9 |
| 20260506103526 | 57 | 164 | 0.9 | 3.5 | 0.00 | 0.00 | 0.00 | 89 | 1009.9 |
| 20260506103041 | 56 | 148 | 0.9 | 3.5 | 0.00 | 0.00 | 0.00 | 89 | 1010.0 |
| 20260506102530 | 56 | 192 | 0.9 | 1.7 | 0.00 | 0.00 | 0.00 | 89 | 1009.7 |
| 20260506102028 | 56 | 157 | 0.9 | 2.6 | 0.00 | 0.00 | 0.00 | 90 | 1009.8 |
| 20260506101549 | 56 | 148 | 0.0 | 2.6 | 0.00 | 0.00 | 0.00 | 89 | 1009.5 |
| 20260506101025 | 56 | 155 | 0.9 | 3.5 | 0.00 | 0.00 | 0.00 | 89 | 1009.4 |
| 20260506100528 | 56 | 210 | 1.7 | 3.5 | 0.00 | 0.00 | 0.00 | 89 | 1009.6 |
| 20260506100041 | 56 | 205 | 0.9 | 2.6 | 0.00 | 0.00 | 0.00 | 89 | 1009.6 |
| 20260506095529 | 56 | 205 | 1.7 | 3.5 | 0.00 | 0.00 | 0.00 | 89 | 1009.6 |
| 20260506095028 | 56 | 203 | 0.9 | 3.5 | 0.00 | 0.00 | 0.00 | 89 | 1009.5 |
| 20260506094542 | 56 | 201 | 0.9 | 1.7 | 0.00 | 0.00 | 0.00 | 89 | 1009.4 |
| 20260506094029 | 56 | 157 | 0.9 | 2.6 | 0.00 | 0.00 | 0.00 | 89 | 1009.4 |
| 20260506093529 | 56 | 152 | 0.9 | 2.6 | 0.00 | 0.00 | 0.00 | 89 | 1009.6 |
| 20260506093039 | 56 | 184 | 0.9 | 1.7 | 0.00 | 0.00 | 0.00 | 88 | 1009.7 |
| 20260506092527 | 56 | 188 | 0.9 | 2.6 | 0.00 | 0.00 | 0.00 | 88 | 1009.5 |
| 20260506092026 | 56 | 204 | 0.9 | 2.6 | 0.00 | 0.00 | 0.00 | 88 | 1009.6 |
| 20260506091538 | 57 | 175 | 0.9 | 2.6 | 0.00 | 0.00 | 0.00 | 88 | 1009.5 |
| 20260506091029 | 57 | 207 | 0.9 | 1.7 | 0.00 | 0.00 | 0.00 | 87 | 1009.5 |
| 20260506090525 | 57 | 165 | 0.9 | 2.6 | 0.00 | 0.00 | 0.00 | 87 | 1009.5 |
| 20260506090046 | 57 | 201 | 0.9 | 2.6 | 0.00 | 0.00 | 0.00 | 87 | 1009.6 |
| 20260506085525 | 57 | 171 | 0.9 | 1.7 | 0.00 | 0.00 | 0.00 | 87 | 1009.6 |
| 20260506085025 | 57 | 162 | 0.9 | 5.2 | 0.00 | 0.00 | 0.00 | 86 | 1009.5 |
| 20260506084545 | 57 | 200 | 0.9 | 5.2 | 0.00 | 0.00 | 0.00 | 86 | 1009.5 |
| 20260506084028 | 57 | 164 | 0.9 | 2.6 | 0.00 | 0.00 | 0.00 | 86 | 1009.5 |
| 20260506083531 | 57 | 178 | 0.9 | 2.6 | 0.00 | 0.00 | 0.00 | 86 | 1009.5 |
| 20260506083043 | 57 | 199 | 0.9 | 2.6 | 0.00 | 0.00 | 0.00 | 86 | 1009.6 |
| 20260506082530 | 57 | 0 | 0.9 | 2.6 | 0.00 | 0.00 | 0.00 | 86 | 1009.5 |
| 20260506082026 | 57 | 176 | 0.9 | 2.6 | 0.00 | 0.00 | 0.00 | 86 | 1009.5 |
| 20260506081543 | 57 | 150 | 0.0 | 1.7 | 0.00 | 0.00 | 0.00 | 86 | 1009.5 |
| 20260506081029 | 57 | 160 | 0.0 | 1.7 | 0.00 | 0.00 | 0.00 | 86 | 1009.5 |
| 20260506080529 | 57 | 158 | 0.0 | 1.7 | 0.00 | 0.00 | 0.00 | 85 | 1009.5 |
| 20260506073045 | 58 | 167 | 0.0 | 2.6 | 0.00 | 0.00 | 0.00 | 84 | 1009.6 |
| 20260506072530 | 58 | 147 | 0.9 | 2.6 | 0.00 | 0.00 | 0.00 | 83 | 1009.5 |
| 20260506072029 | 58 | 195 | 0.9 | 1.7 | 0.00 | 0.00 | 0.00 | 83 | 1009.5 |
| 20260506071541 | 58 | 156 | 0.0 | 1.7 | 0.00 | 0.00 | 0.00 | 83 | 1009.5 |
| 20260506071028 | 58 | 150 | 0.9 | 1.7 | 0.00 | 0.00 | 0.00 | 82 | 1009.5 |
| 20260506070528 | 58 | 154 | 0.0 | 2.6 | 0.00 | 0.00 | 0.00 | 82 | 1009.6 |
| 20260506062026 | 59 | 0 | 0.0 | 0.0 | 0.00 | 0.00 | 0.00 | 80 | 1009.4 |
| 20260506061548 | 59 | 0 | 0.0 | 0.0 | 0.00 | 0.00 | 0.00 | 79 | 1009.3 |
| 20260506061031 | 59 | 0 | 0.0 | 0.0 | 0.00 | 0.00 | 0.00 | 79 | 1009.3 |
| 20260506060525 | 59 | 0 | 0.0 | 0.0 | 0.00 | 0.00 | 0.00 | 78 | 1009.3 |
| 20260506051026 | 61 | 155 | 0.0 | 1.7 | 0.00 | 0.00 | 0.00 | 75 | 1009.6 |
| 20260506050526 | 61 | 0 | 0.0 | 2.6 | 0.00 | 0.00 | 0.00 | 75 | 1009.5 |
| 20260506045025 | 61 | 131 | 0.0 | 1.7 | 0.00 | 0.00 | 0.00 | 75 | 1009.6 |
| 20260506044543 | 61 | 153 | 0.0 | 1.7 | 0.00 | 0.00 | 0.00 | 75 | 1009.6 |
| 20260506044029 | 61 | 0 | 0.0 | 1.7 | 0.00 | 0.00 | 0.00 | 75 | 1009.6 |
| 20260506043525 | 61 | 0 | 0.0 | 1.7 | 0.00 | 0.00 | 0.00 | 75 | 1009.7 |
| 20260506043041 | 61 | 0 | 0.0 | 1.7 | 0.00 | 0.00 | 0.00 | 74 | 1009.8 |
| 20260506042529 | 61 | 197 | 0.0 | 0.9 | 0.00 | 0.00 | 0.00 | 74 | 1009.7 |
| 20260506042029 | 61 | 149 | 0.0 | 3.5 | 0.00 | 0.00 | 0.00 | 74 | 1009.7 |
| 20260506041557 | 61 | 165 | 0.0 | 3.5 | 0.00 | 0.00 | 0.00 | 74 | 1009.7 |
| 20260506041025 | 61 | 0 | 0.9 | 3.5 | 0.00 | 0.00 | 0.00 | 74 | 1009.6 |
| 20260506040529 | 61 | 176 | 0.0 | 1.7 | 0.00 | 0.00 | 0.00 | 73 | 1009.7 |
| 20260506040041 | 62 | 172 | 0.0 | 1.7 | 0.00 | 0.00 | 0.00 | 73 | 1009.7 |
| 20260506035525 | 62 | 153 | 0.0 | 3.5 | 0.00 | 0.00 | 0.00 | 73 | 1009.7 |
| 20260506035025 | 62 | 169 | 0.0 | 3.5 | 0.00 | 0.00 | 0.00 | 73 | 1009.7 |
| 20260506034548 | 62 | 167 | 0.0 | 2.6 | 0.00 | 0.00 | 0.00 | 73 | 1009.8 |
| 20260506034030 | 62 | 154 | 0.0 | 0.9 | 0.00 | 0.00 | 0.00 | 72 | 1009.8 |
| 20260506033529 | 62 | 199 | 0.0 | 2.6 | 0.00 | 0.00 | 0.00 | 72 | 1009.8 |
| 20260506033038 | 62 | 0 | 0.0 | 5.2 | 0.00 | 0.00 | 0.00 | 72 | 1009.8 |
| 20260506032526 | 62 | 135 | 0.9 | 5.2 | 0.00 | 0.00 | 0.00 | 71 | 1009.8 |
| 20260506032027 | 62 | 160 | 0.0 | 2.6 | 0.00 | 0.00 | 0.00 | 71 | 1009.6 |
| 20260506031543 | 62 | 184 | 0.9 | 2.6 | 0.00 | 0.00 | 0.00 | 71 | 1009.7 |
| 20260506031025 | 63 | 146 | 0.0 | 1.7 | 0.00 | 0.00 | 0.00 | 70 | 1009.7 |
| 20260506030528 | 63 | 151 | 0.0 | 2.6 | 0.00 | 0.00 | 0.00 | 70 | 1009.7 |
| 20260506030043 | 63 | 171 | 0.9 | 2.6 | 0.00 | 0.00 | 0.00 | 70 | 1009.6 |
| 20260506025604 | 63 | 157 | 0.0 | 2.6 | 0.00 | 0.00 | 0.00 | 70 | 1009.7 |
| 20260506025028 | 63 | 162 | 0.9 | 2.6 | 0.00 | 0.00 | 0.00 | 69 | 1009.7 |
| 20260506024540 | 63 | 160 | 0.0 | 3.5 | 0.00 | 0.00 | 0.00 | 69 | 1009.7 |
| 20260506024025 | 64 | 153 | 0.0 | 3.5 | 0.00 | 0.00 | 0.00 | 69 | 1009.6 |
| 20260506023527 | 64 | 219 | 0.9 | 2.6 | 0.00 | 0.00 | 0.00 | 69 | 1009.6 |
| 20260506023043 | 64 | 156 | 0.9 | 1.7 | 0.00 | 0.00 | 0.00 | 69 | 1009.6 |
| 20260506022528 | 64 | 156 | 0.9 | 1.7 | 0.00 | 0.00 | 0.00 | 69 | 1009.6 |
| 20260506022028 | 64 | 147 | 0.0 | 1.7 | 0.00 | 0.00 | 0.00 | 69 | 1009.5 |
| 20260506021538 | 64 | 161 | 0.0 | 1.7 | 0.00 | 0.00 | 0.00 | 69 | 1009.5 |
| 20260506021028 | 65 | 157 | 0.9 | 1.7 | 0.00 | 0.00 | 0.00 | 68 | 1009.5 |
| 20260506020528 | 65 | 150 | 0.0 | 3.5 | 0.00 | 0.00 | 0.00 | 68 | 1009.4 |
| 20260506020051 | 65 | 151 | 0.0 | 3.5 | 0.00 | 0.00 | 0.00 | 68 | 1009.4 |
| 20260506015526 | 65 | 128 | 0.9 | 3.5 | 0.00 | 0.00 | 0.00 | 67 | 1009.4 |
| 20260506015029 | 65 | 213 | 0.0 | 2.6 | 0.00 | 0.00 | 0.00 | 67 | 1009.4 |
| 20260506014544 | 65 | 164 | 0.9 | 1.7 | 0.00 | 0.00 | 0.00 | 67 | 1009.5 |
| 20260506014025 | 65 | 157 | 0.0 | 1.7 | 0.00 | 0.00 | 0.00 | 68 | 1009.4 |
| 20260506013525 | 65 | 148 | 0.9 | 1.7 | 0.00 | 0.00 | 0.00 | 67 | 1009.4 |
| 20260506013052 | 66 | 0 | 0.0 | 1.7 | 0.00 | 0.00 | 0.00 | 67 | 1009.2 |
| 20260506012527 | 66 | 162 | 0.9 | 2.6 | 0.00 | 0.00 | 0.00 | 66 | 1009.3 |
| 20260506012026 | 66 | 195 | 0.0 | 2.6 | 0.00 | 0.00 | 0.00 | 66 | 1009.2 |
| 20260506011545 | 67 | 135 | 0.9 | 2.6 | 0.00 | 0.00 | 0.00 | 65 | 1009.1 |
| 20260506011025 | 67 | 106 | 0.9 | 3.5 | 0.00 | 0.00 | 0.00 | 65 | 1009.1 |
| 20260506010530 | 67 | 150 | 0.0 | 4.3 | 0.00 | 0.00 | 0.00 | 64 | 1009.2 |
| 20260506010040 | 67 | 120 | 0.0 | 4.3 | 0.00 | 0.00 | 0.00 | 64 | 1009.1 |
| 20260506005528 | 68 | 253 | 0.9 | 4.3 | 0.00 | 0.00 | 0.00 | 63 | 1008.9 |
| 20260506005026 | 68 | 0 | 0.9 | 4.3 | 0.00 | 0.00 | 0.00 | 63 | 1008.9 |
| 20260506004546 | 68 | 150 | 1.7 | 4.3 | 0.00 | 0.00 | 0.00 | 62 | 1008.9 |
| 20260506004026 | 68 | 140 | 0.9 | 4.3 | 0.00 | 0.00 | 0.00 | 62 | 1008.8 |
| 20260506003526 | 69 | 0 | 0.9 | 4.3 | 0.00 | 0.00 | 0.00 | 62 | 1008.9 |
| 20260506003045 | 69 | 175 | 0.9 | 6.1 | 0.00 | 0.00 | 0.00 | 62 | 1008.6 |
| 20260506002525 | 69 | 113 | 1.7 | 6.1 | 0.00 | 0.00 | 0.00 | 62 | 1008.5 |
| 20260506002026 | 69 | 200 | 0.9 | 4.3 | 0.00 | 0.00 | 0.00 | 61 | 1008.5 |
| 20260506001553 | 69 | 138 | 0.9 | 5.2 | 0.00 | 0.00 | 0.00 | 61 | 1008.3 |
| 20260506001026 | 69 | 221 | 1.7 | 5.2 | 0.00 | 0.00 | 0.00 | 60 | 1008.1 |
| 20260506000526 | 69 | 0 | 0.9 | 3.5 | 0.00 | 0.00 | 0.00 | 61 | 1008.0 |
| 20260506000044 | 70 | 135 | 0.9 | 3.5 | 0.00 | 0.00 | 0.00 | 61 | 1007.8 |
| 20260505235525 | 70 | 148 | 0.9 | 3.5 | 0.00 | 0.00 | 0.00 | 60 | 1007.7 |
| 20260505235025 | 70 | 118 | 0.9 | 4.3 | 0.00 | 0.00 | 0.00 | 60 | 1007.5 |
| 20260505234543 | 71 | 188 | 1.7 | 6.1 | 0.00 | 0.00 | 0.00 | 60 | 1007.5 |
| 20260505234025 | 71 | 146 | 1.7 | 6.1 | 0.00 | 0.00 | 0.00 | 59 | 1007.4 |
| 20260505233530 | 71 | 209 | 1.7 | 4.3 | 0.00 | 0.00 | 0.00 | 59 | 1007.3 |
| 20260505233038 | 71 | 148 | 1.7 | 4.3 | 0.00 | 0.00 | 0.00 | 58 | 1007.2 |
| 20260505232525 | 72 | 154 | 0.9 | 4.3 | 0.00 | 0.00 | 0.00 | 58 | 1007.1 |
| 20260505232026 | 72 | 150 | 1.7 | 7.0 | 0.00 | 0.00 | 0.00 | 57 | 1007.1 |
| 20260505231537 | 72 | 148 | 2.6 | 7.0 | 0.00 | 0.00 | 0.00 | 56 | 1006.9 |
| 20260505231026 | 73 | 137 | 2.6 | 6.1 | 0.00 | 0.00 | 0.00 | 56 | 1006.7 |
| 20260505230528 | 73 | 160 | 1.7 | 6.1 | 0.00 | 0.00 | 0.00 | 55 | 1006.6 |
| 20260505230052 | 73 | 146 | 0.9 | 6.1 | 0.00 | 0.00 | 0.00 | 56 | 1006.7 |
| 20260505225529 | 73 | 221 | 2.6 | 7.0 | 0.00 | 0.00 | 0.00 | 56 | 1006.7 |
| 20260505225030 | 74 | 143 | 1.7 | 7.0 | 0.00 | 0.00 | 0.00 | 54 | 1006.6 |
| 20260505224535 | 74 | 143 | 2.6 | 6.1 | 0.00 | 0.00 | 0.00 | 54 | 1006.6 |
| 20260505224025 | 74 | 147 | 2.6 | 7.0 | 0.00 | 0.00 | 0.00 | 53 | 1006.5 |
| 20260505223529 | 75 | 93 | 2.6 | 8.7 | 0.00 | 0.00 | 0.00 | 52 | 1006.5 |
| 20260505223045 | 75 | 221 | 2.6 | 8.7 | 0.00 | 0.00 | 0.00 | 52 | 1006.2 |
| 20260505222527 | 76 | 157 | 3.5 | 8.7 | 0.00 | 0.00 | 0.00 | 51 | 1006.4 |
| 20260505222025 | 76 | 137 | 2.6 | 9.6 | 0.00 | 0.00 | 0.00 | 50 | 1006.1 |
| 20260505221550 | 77 | 177 | 2.6 | 9.6 | 0.00 | 0.00 | 0.00 | 50 | 1006.2 |
| 20260505221029 | 77 | 156 | 2.6 | 9.6 | 0.00 | 0.00 | 0.00 | 50 | 1006.1 |
| 20260505220525 | 77 | 193 | 3.5 | 10.4 | 0.00 | 0.00 | 0.00 | 50 | 1006.1 |
| 20260505220052 | 77 | 199 | 3.5 | 10.4 | 0.00 | 0.00 | 0.00 | 50 | 1006.0 |
| 20260505215531 | 77 | 184 | 2.6 | 10.4 | 0.00 | 0.00 | 0.00 | 49 | 1006.0 |
| 20260505215028 | 78 | 136 | 2.6 | 7.8 | 0.00 | 0.00 | 0.00 | 49 | 1005.9 |
| 20260505214539 | 78 | 158 | 3.5 | 11.3 | 0.00 | 0.00 | 0.00 | 50 | 1005.9 |
| 20260505214026 | 78 | 153 | 4.3 | 11.3 | 0.00 | 0.00 | 0.00 | 49 | 1005.8 |
| 20260505213527 | 78 | 113 | 3.5 | 11.3 | 0.00 | 0.00 | 0.00 | 49 | 1005.8 |
| 20260505213042 | 79 | 184 | 3.5 | 11.3 | 0.00 | 0.00 | 0.00 | 48 | 1005.4 |
| 20260505212527 | 79 | 174 | 3.5 | 7.0 | 0.00 | 0.00 | 0.00 | 48 | 1005.4 |
| 20260505212030 | 79 | 139 | 3.5 | 10.4 | 0.00 | 0.00 | 0.00 | 48 | 1005.5 |
| 20260505211549 | 79 | 147 | 3.5 | 10.4 | 0.00 | 0.00 | 0.00 | 48 | 1005.5 |
| 20260505211026 | 79 | 217 | 4.3 | 12.2 | 0.00 | 0.00 | 0.00 | 49 | 1005.6 |
| 20260505210525 | 79 | 132 | 4.3 | 12.2 | 0.00 | 0.00 | 0.00 | 50 | 1005.6 |
| 20260505210043 | 79 | 124 | 3.5 | 9.6 | 0.00 | 0.00 | 0.00 | 50 | 1005.7 |
| 20260505205526 | 79 | 115 | 2.6 | 11.3 | 0.00 | 0.00 | 0.00 | 49 | 1005.4 |
| 20260505205031 | 79 | 148 | 3.5 | 11.3 | 0.00 | 0.00 | 0.00 | 48 | 1005.4 |
| 20260505204542 | 79 | 214 | 3.5 | 9.6 | 0.00 | 0.00 | 0.00 | 47 | 1005.3 |
| 20260505204032 | 79 | 99 | 2.6 | 9.6 | 0.00 | 0.00 | 0.00 | 48 | 1005.4 |
| 20260505203530 | 79 | 172 | 4.3 | 13.0 | 0.00 | 0.00 | 0.00 | 48 | 1005.5 |
| 20260505203037 | 80 | 165 | 3.5 | 13.0 | 0.00 | 0.00 | 0.00 | 47 | 1005.3 |
| 20260505202530 | 80 | 167 | 1.7 | 7.0 | 0.00 | 0.00 | 0.00 | 48 | 1005.4 |
| 20260505202029 | 81 | 147 | 3.5 | 7.8 | 0.00 | 0.00 | 0.00 | 46 | 1005.3 |
| 20260505201536 | 80 | 232 | 3.5 | 7.8 | 0.00 | 0.00 | 0.00 | 47 | 1005.6 |
| 20260505201033 | 81 | 162 | 3.5 | 7.8 | 0.00 | 0.00 | 0.00 | 47 | 1005.5 |
| 20260505200530 | 80 | 201 | 4.3 | 7.8 | 0.00 | 0.00 | 0.00 | 46 | 1005.6 |
| 20260505200043 | 81 | 205 | 3.5 | 7.8 | 0.00 | 0.00 | 0.00 | 45 | 1005.6 |
| 20260505195530 | 81 | 170 | 1.7 | 8.7 | 0.00 | 0.00 | 0.00 | 52 | 1005.5 |
| 20260505195030 | 81 | 179 | 3.5 | 9.6 | 0.00 | 0.00 | 0.00 | 48 | 1005.4 |
| 20260505194545 | 81 | 217 | 3.5 | 9.6 | 0.00 | 0.00 | 0.00 | 46 | 1005.4 |
| 20260505194030 | 80 | 152 | 3.5 | 8.7 | 0.00 | 0.00 | 0.00 | 47 | 1005.6 |
| 20260505193531 | 81 | 138 | 3.5 | 7.0 | 0.00 | 0.00 | 0.00 | 45 | 1005.5 |
| 20260505193050 | 81 | 217 | 2.6 | 7.0 | 0.00 | 0.00 | 0.00 | 44 | 1005.5 |
| 20260505192535 | 81 | 192 | 2.6 | 7.8 | 0.00 | 0.00 | 0.00 | 45 | 1005.6 |
| 20260505192032 | 82 | 176 | 3.5 | 9.6 | 0.00 | 0.00 | 0.00 | 44 | 1005.8 |
| 20260505191543 | 83 | 154 | 3.5 | 13.0 | 0.00 | 0.00 | 0.00 | 35 | 1005.7 |
| 20260505191029 | 83 | 165 | 4.3 | 13.0 | 0.00 | 0.00 | 0.00 | 37 | 1005.6 |
| 20260505190530 | 83 | 206 | 3.5 | 7.0 | 0.00 | 0.00 | 0.00 | 37 | 1005.7 |
| 20260505190043 | 83 | 178 | 1.7 | 7.0 | 0.00 | 0.00 | 0.00 | 37 | 1005.9 |
| 20260505185530 | 83 | 185 | 2.6 | 13.9 | 0.00 | 0.00 | 0.00 | 38 | 1005.8 |